DECAYED

FENGYUN 1C DEB, 30164 (Decayed)

Orbit data source: Space-Track

FENGYUN 1C DEB, 30164 was space debris in SSO originally from a launch on Mon, 10 May 1999 UTC launched from the Taiyaun Space Center, China (TSC). Fengyun 1C debris stems from the Chinese weather satellite Fengyun-1C, which was intentionally destroyed by a Chinese anti-satellite missile in 2007. This event dramatically increased the amount of space debris, with thousands of trackable fragments posing hazards to satellites and human spaceflight. The Fengyun 1C debris cloud has become a focal point in discussions about space sustainability and the need for international regulations to prevent the creation of new debris.

Not visible in the next 10 days
Identifier
30164, 1999-025TV
Orbit
Decayed
Country
Flag of CNCN / PRC
Related business
Manufacturer
Unknown
Mission
Decayed spacecraft
Bus & Motor
Unknown
Mass
Unknown
Launch date (UTC)
1999-05-10 (27 years ago)
Launch vehicle
Unknown
Launch site
Taiyaun Space Center, China (TSC)
Object type
Payload
Rocket body
Debris
Shape & HBR
Unknown shape, 0.1 m
Radar Cross Section
Medium (>0.1 m² and <1 m²)

Expand to show TLE details & history
Last TLE update: 2 years ago

TLE from 2 years ago
0 FENGYUN 1C DEB
1 30164U 99025TV  25045.18815853  .02063034  00000-0  61984-1 0  9991
2 30164  99.5639 308.9512 0046575 170.1509 190.0648 15.30241056896744
Epoch: 2025-02-14T04:30Z
TLE epoch observation values (Epoch: 2025-02-14T04:30:56.896Z)
Latitude
-0.00013°
Longitude
96.76064°
Altitude
509.565 km
Speed
7.592 km/s
True Right ascension
20h 35m 48s
True Declination
0° 00' 00"
Sunlit
Object was in daylight at epoch
Visualization orbit readout
Latitude
Unknown
Longitude
Unknown
Altitude
Unknown
Speed
Unknown
Apparent Right ascension
Unknown
Apparent Declination
Unknown
Sunlit
N/A
Visualization observer readout
Local Sidereal Time
20:56:13
Azimuth
Unknown
Elevation
Unknown
Doppler factor
Unknown
Orbital elements
Apogee altitude
504.056 km
Perigee altitude
440.245 km
Semi-major axis
6,850.287 km
Eccentricity
0.00466
Inclination
99.5639°
RAAN
308.9512°
Arg. of periapsis
170.1509°
True anomaly
189.97206°
Mean anomaly
190.0648°
Eccentric anomaly
190.01838°
Mean motion
3.82807 °/min
Orbital period
94.04 mins
BSTAR
0.061984
Loading maneuver chart data...
Computing Atmospheric mass density...

Documentation

Showing up to 5 results
|